Simultaneous Nadir Overpasses (SNOs) Predictions

Prediction of SNOs between GOES-17 and AQUA Satellite Orbit:

Table of predicted SNOs for the next 14.0 days since TLE Epoch: 3/13/2020
Index Date Time (GOES-17) GOES-17 Lat,Lon AQUA Lat,Lon Distance(km) Time Diff (sec)
1 03/13/2020 22:42:48 -0.01,-137.21 0.17,-136.44 87.55 80
2 03/14/2020 11:04:04 0.01,-137.22 0.94,-141.60 498.49 80
3 03/15/2020 22:30:38 -0.01,-137.21 0.78,-133.48 423.70 80
4 03/16/2020 10:51:53 0.02,-137.21 0.33,-138.64 162.60 80
5 03/18/2020 10:37:02 0.02,-137.21 -0.28,-135.68 172.74 80
6 03/18/2020 22:58:26 -0.02,-137.20 -0.82,-140.87 418.30 80
7 03/20/2020 22:46:16 -0.01,-137.19 -0.14,-137.93 83.45 80
8 03/22/2020 22:36:45 -0.01,-137.18 0.48,-134.97 251.26 80
9 03/23/2020 10:58:01 0.01,-137.18 0.63,-140.13 334.89 80
10 03/25/2020 10:45:50 0.00,-137.17 0.01,-137.17 0.78 80
11 03/27/2020 10:30:59 0.00,-137.14 -0.62,-134.22 332.82 80




NCC Satellite Simultaneous Nadir Overpasses (SNOs) Prediction Service
